sat.trackr.live / text

‹ back to catalog

STARLINK-31557

NORAD 59357 · 2024-060K

PAYLOAD ACTIVE UNKNOWN

§ Identity

Operator
Country
US
Launch date
2024-03-31
Launch site
AFETR
Launch vehicle
Mass (kg)
RCS (m²)

Purposes: comms

External: N2YO · Heavens-Above · Gunter

§ Orbital elements

Epoch: 2026-09-19T23:28:10.086528Z

Period
94.27 min
Inclination
43.0028°
Eccentricity
0.0001021
Mean motion
15.27572037 rev/d
Perigee alt
482.4 km
Apogee alt
483.8 km
Semi-major
6,861.2 km
B*
3.7043e-5
RAAN
238.5252°
Arg perigee
274.1327°
Mean anomaly
85.9408°
Rev number
13,982

§ Raw data

STARLINK-315571 59357U 24060K   26262.97789452  .00000757  00000+0  37043-4 0  99992 59357  43.0028 238.5252 0001021 274.1327  85.9408 15.27572037139821

JSON: /api/v1/satellites/59357 · /tle

For live sub-satellite position, see the globe view (requires WebGL).

§ Visibility from observer

Set your observer location to see the next 7 days of passes ≥ 10°. The values pass through the URL so the page stays shareable.

No JS? Fill the form by hand. The geolocation button needs JavaScript.